Weather History for Lee's Summit, MO

Change the Weather History Date:

Saturday, November 3, 2012

  Actual Average (KMKC) Record (KMKC)
Temperature  
Mean Temperature 47 °F -  
Max Temperature 57 °F 56 °F 78 °F (2008)
Min Temperature 39 °F 41 °F 30 °F (2006)
Degree Days  
Heating Degree Days 18    
Moisture  
Dew Point 32 °F    
Average Humidity 58    
Maximum Humidity 73    
Minimum Humidity 40    
Precipitation  
Precipitation 0.00 in - - ()
Sea Level Pressure  
Sea Level Pressure 30.12 in    
Wind  
Wind Speed 9 mph (North)    
Max Wind Speed 13 mph    
Max Gust Speed -    
Visibility 10 miles    
Events      
Averages and records for this station are not official NWS values.
T = Trace of Precipitation, MM = Missing Value Source: NWS Daily Summary

Daily Weather History Graph

Daily Weather History Graph

Search for Another Location

Airport:

Trip Planner

Search our weather history database for the weather conditions in past years. The results will help you decide how hot, cold, wet, or windy it might be!

Date:

Astronomy

Nov. 03, 2012 Rise Set
Actual Time 7:47 AM CDT 6:14 PM CDT
Civil Twilight 7:19 AM CDT 6:41 PM CDT
Nautical Twilight 6:48 AM CDT 7:13 PM CDT
Astronomical Twilight 6:16 AM CDT 7:44 PM CDT
Moon 9:56 PM CDT (11/3) 11:51 AM CDT (11/3)
Length of Visible Light 11h 22m
Length of Day
10h 26m
Waning Gibbous, 80% of the Moon is Illuminated
Nov 3
Waning Gibbous
Nov 6
Last Quarter
Nov 13
New
Nov 20
First Quarter
Nov 28
Full

Hourly Weather History & Observations

Time (CDT) Temp. Windchill Dew Point Humidity Pressure Visibility Wind Dir Wind Speed Gust Speed Precip Events Conditions
12:53 AM 46.0 °F 41.0 °F 33.1 °F 61% 29.95 in 10.0 mi North 10.4 mph - N/A   Clear
1:53 AM 45.0 °F 39.3 °F 33.1 °F 63% 29.96 in 10.0 mi North 11.5 mph - N/A   Clear
2:53 AM 44.1 °F 37.7 °F 33.1 °F 65% 29.98 in 10.0 mi North 12.7 mph - N/A   Clear
3:53 AM 43.0 °F 37.7 °F 32.0 °F 65% 29.99 in 10.0 mi North 9.2 mph - N/A   Clear
4:53 AM 42.1 °F 36.6 °F 32.0 °F 67% 30.01 in 10.0 mi North 9.2 mph - N/A   Clear
5:53 AM 41.0 °F 35.8 °F 30.9 °F 67% 30.04 in 10.0 mi NNW 8.1 mph - N/A   Clear
6:53 AM 39.9 °F 33.4 °F 30.9 °F 70% 30.07 in 10.0 mi NNW 10.4 mph - N/A   Clear
7:53 AM 39.0 °F 32.8 °F 30.9 °F 73% 30.09 in 10.0 mi NNW 9.2 mph - N/A   Clear
8:53 AM 39.9 °F 33.9 °F 30.9 °F 70% 30.13 in 10.0 mi NNW 9.2 mph - N/A   Clear
9:53 AM 42.1 °F 36.1 °F 30.9 °F 65% 30.15 in 10.0 mi NNW 10.4 mph - N/A   Clear
10:53 AM 44.1 °F 38.1 °F 30.9 °F 60% 30.16 in 10.0 mi North 11.5 mph - N/A   Clear
11:53 AM 48.0 °F - 33.1 °F 56% 30.17 in 10.0 mi North 8.1 mph - N/A   Clear
12:53 PM 52.0 °F - 33.1 °F 49% 30.16 in 10.0 mi NW 12.7 mph - N/A   Clear
1:53 PM 54.0 °F - 33.1 °F 45% 30.16 in 10.0 mi North 12.7 mph - N/A   Clear
2:53 PM 55.9 °F - 33.1 °F 42% 30.16 in 10.0 mi NNW 11.5 mph - N/A   Clear
3:53 PM 55.9 °F - 33.1 °F 42% 30.16 in 10.0 mi North 8.1 mph - N/A   Clear
4:53 PM 55.9 °F - 32.0 °F 40% 30.16 in 10.0 mi NNE 11.5 mph - N/A   Clear
5:53 PM 53.1 °F - 32.0 °F 45% 30.17 in 10.0 mi North 6.9 mph - N/A   Clear
6:53 PM 51.1 °F - 32.0 °F 48% 30.17 in 10.0 mi NE 3.5 mph - N/A   Clear
7:53 PM 48.9 °F - 30.9 °F 50% 30.19 in 10.0 mi Calm Calm - N/A   Clear
8:53 PM 48.0 °F - 30.9 °F 52% 30.20 in 9.0 mi Calm Calm - N/A   Clear
9:53 PM 46.0 °F - 32.0 °F 58% 30.21 in 10.0 mi Calm Calm - N/A   Clear
10:53 PM 44.1 °F - 32.0 °F 63% 30.21 in 10.0 mi Calm Calm - N/A   Clear
11:53 PM 41.0 °F - 32.0 °F 70% 30.21 in 10.0 mi Calm Calm - N/A   Clear